Home > Weather > Chișinău > Past weeks

Flag for Moldova Past Weather in Chișinău, Moldova — Yesterday and Last 2 Weeks

Now
64 °F

Clear.


Feels Like: 64 °F
Forecast: 59 / 80 °F
Wind: 9 mph from North

Location: Chisinau International Airport

Current Time: Aug 25, 2016 at 4:16:59 AM

Latest Report: Aug 25, 2016 at 4:00 AM


Visibility: 10 mi

Pressure: 30.09 "Hg

Humidity: 73%

Dew Point: 55 °F

Location of ChișinăuLocation

Past Weather in Chișinău — Graph

°F

Chișinău Temperature Yesterday

Maximum temperature yesterday: 81 °F (at 4:00 PM)
Minimum temperature yesterday: 68 °F (at 7:30 AM)
Average temperature yesterday: 73 °F

High & Low Weather Summary for the Past Weeks

 TemperatureHumidityPressure
High93 °F (Aug 22, 2:00 PM)100% (Aug 12, 5:00 AM)30.18 "Hg (Aug 12, 5:00 AM)
Low50 °F (Aug 14, 5:00 AM)25% (Aug 10, 3:30 PM)29.83 "Hg (Aug 10, 7:00 PM)
Average72 °F63%29.99 "Hg
* Reported Aug 10 3:00 AM — Aug 25 3:00 AM, Chișinău, Weather by CustomWeather, © 2016

Note: Actual official high and low records may vary slightly from our data, if they occured in-between our weather recording intervals... More about our weather records

Advertising

Chișinău Weather History for the Previous 24 Hours

Scroll right to see more
 ConditionsComfort  
Time TempWeatherWind HumidityBarometerVisibility
3:00 AM
Thu, Aug 25
64 °FClear.7 mph73%30.07 "Hg10 mi
2:30 AM66 °FClear.9 mph68%30.07 "Hg10 mi
2:00 AM64 °FClear.7 mph73%30.07 "Hg10 mi
1:30 AM64 °FClear.5 mph68%30.07 "Hg10 mi
1:00 AM66 °FClear.1 mph64%30.07 "Hg10 mi
12:30 AM68 °FClear.6 mph60%30.07 "Hg10 mi
12:00 AM68 °FClear.7 mph60%30.07 "Hg10 mi
11:30 PM
Wed, Aug 24
68 °FClear.7 mph60%30.07 "Hg10 mi
11:00 PM70 °FPassing clouds.3 mph57%30.07 "HgN/A
10:30 PM70 °FClear.6 mph57%30.07 "Hg10 mi
10:00 PM72 °FClear.6 mph50%30.07 "Hg10 mi
9:30 PM73 °FPassing clouds.10 mph47%30.07 "HgN/A
9:00 PM73 °FPassing clouds.7 mph50%30.07 "HgN/A
8:30 PM75 °FPassing clouds.7 mph47%30.04 "HgN/A
8:00 PM77 °FPassing clouds.9 mph51%30.04 "HgN/A
7:30 PM77 °FPassing clouds.12 mph51%30.04 "HgN/A
7:00 PM79 °FPassing clouds.14 mph48%30.04 "HgN/A
6:30 PM79 °FPassing clouds.14 mph51%30.04 "HgN/A
6:00 PM79 °FScattered clouds.16 mph51%30.01 "HgN/A
5:30 PM81 °FScattered clouds.18 mph51%30.01 "HgN/A
5:00 PM81 °FScattered clouds.17 mph51%30.01 "HgN/A
4:30 PM81 °FScattered clouds.16 mph54%30.01 "HgN/A
4:00 PM81 °FScattered clouds.17 mph54%30.01 "HgN/A
3:30 PM79 °FScattered clouds.16 mph61%30.01 "HgN/A
3:00 PM77 °FScattered clouds.15 mph65%30.04 "HgN/A
2:30 PM73 °FScattered clouds.20 mph69%30.04 "HgN/A
2:00 PM75 °FPartly sunny.17 mph69%30.04 "HgN/A
1:30 PM73 °FPartly sunny.14 mph74%30.04 "HgN/A
1:00 PM70 °FPartly sunny.14 mph78%30.07 "HgN/A
12:30 PM70 °FPartly sunny.16 mph83%30.07 "HgN/A
12:00 PM70 °FBroken clouds.13 mph83%30.07 "HgN/A
11:30 AM68 °FSprinkles. Partly sunny.15 mph88%30.07 "HgN/A
11:00 AM68 °FSprinkles. Partly sunny.18 mph88%30.07 "HgN/A
10:30 AM68 °FSprinkles. Partly sunny.16 mph88%30.07 "HgN/A
10:00 AM68 °FSprinkles. Broken clouds.16 mph88%30.04 "HgN/A
9:30 AM70 °FSprinkles. Scattered clouds.15 mph83%30.04 "HgN/A
9:00 AM70 °FScattered clouds.14 mph83%30.04 "HgN/A
8:30 AM70 °FScattered clouds.14 mph83%30.04 "HgN/A
8:00 AM68 °FSprinkles. Scattered clouds.14 mph88%30.04 "HgN/A
7:30 AM68 °FScattered clouds.15 mph88%30.04 "HgN/A
7:00 AM70 °FPassing clouds.13 mph83%30.01 "HgN/A
6:30 AM70 °FPassing clouds.12 mph83%30.01 "HgN/A
6:00 AM70 °FPassing clouds.14 mph83%30.01 "HgN/A
5:30 AM70 °FSprinkles. Passing clouds.12 mph83%30.01 "HgN/A
5:00 AM70 °FPassing clouds.12 mph83%30.01 "HgN/A
4:30 AM70 °FPassing clouds.12 mph83%29.98 "HgN/A
4:00 AM70 °FPassing clouds.13 mph83%29.98 "HgN/A
Weather by CustomWeather, © 2016

See weather overviewHow to use our weather pages